Location: Bretagne
(43.8474°N, 0.4650°W)
Time: 10:48:49
(UTC+00:00)

CZ-4 R/B - Pass Details

Date: 15 January 2026
Orbit: 547 x 553 km, 97.6° (Epoch: 11 February)

Event Time Altitude Azimuth Distance (km) Brightness Sun altitude
Rises 17:58:23 0° 160° (SSE) 2,711 7.8 -12.1°
Reaches altitude 10° 18:00:30 10° 158° (SSE) 1,823 6.9 -12.5°
Maximum altitude 18:04:26 70° 75° (ENE) 593 4.2 -13.2°
Drops below altitude 10° 18:08:23 10° 352° (N) 1,842 6.9 -13.9°
Sets 18:10:32 0° 350° (N) 2,742 7.8 -14.2°
